Weather Roundup
Issued by NWS

Home | Current Version | Previous Version | Graphics & Text | Print | Product List | Glossary Off
Versions: 1 2 3 4 5 6 7 8 9 10 11 12 13 14 15 16 17 18 19 20 21 22 23 24 25 26 27 28 29 30 31 32 33 34 35 36 37 38 39 40 41 42 43 44 45 46 47 48 49 50

000
NZUS93 KARX 202010
HRRWXR

CURRENT HOURLY OBSERVATIONS ACROSS
MUCH OF THE UPPER MISSISSIPPI VALLEY
NATIONAL WEATHER SERVICE LA CROSSE WI
300 PM CDT MON OCT 20 2014


...SOUTHEAST MINNESOTA...


CITY           SKY/WX    TMP DP  RH WIND       PRES   REMARKS
ROCHESTER      SUNNY     63  41  44 NW13G24   29.97S
ROCHESTER/MAYO FAIR      62  37  39 W17G23    29.96S
WINONA         SUNNY     63  41  45 NW12      29.94S
AUSTIN         SUNNY     63  43  48 NW14G21   29.97S
ALBERT LEA     SUNNY     64  39  39 NW10G18   29.98S
DODGE CENTER   SUNNY     63  43  48 N16G22    29.97S
PRESTON        SUNNY     60  42  52 N10G16    29.96R
OWATONNA       SUNNY     64  41  42 NW16      29.98S
FARIBAULT      SUNNY     64  39  39 N13       29.98S
$$

...ELSEWHERE IN MINNESOTA...


CITY           SKY/WX    TMP DP  RH WIND       PRES   REMARKS
MINNEAPOLIS    SUNNY     63  42  46 NW13      29.97F
INTNL FALLS    CLOUDY    48  37  65 NW9       30.04S
DULUTH         CLOUDY    49  39  68 N9        29.99S
RED WING       SUNNY     63  39  42 N10G18    29.96S
REDWOOD FALLS  SUNNY     68  39  34 N13G21    30.02S
MANKATO        SUNNY     64  39  39 NW20      29.99S
WORTHINGTON    SUNNY     66  37  34 NW12G18   30.04F
FAIRMONT       SUNNY     68  37  32 N18       30.01S
$$

...SOUTHWEST WISCONSIN...


CITY           SKY/WX    TMP DP  RH WIND       PRES   REMARKS
LA CROSSE      MOSUNNY   67  42  40 NW10      29.92S
PRAIRIE DU CHI SUNNY     65  39  39 NW12G18   29.92S
BOSCOBEL       SUNNY     66  41  40 NW15      29.92S
LONE ROCK      SUNNY     66  40  38 NW12G22   29.90S
PLATTEVILLE    PTSUNNY   64  42  44 NW15      29.92S
FORT MC COY    PTSUNNY   62  39  42 N10G17    29.94R
CAMP DOUGLAS   CLOUDY    59  43  55 N13       29.93R
VIROQUA        FAIR      62  41  46 NW13      29.93R
WIS DELLS      CLOUDY    57  40  52 N8        29.92R
$$

...ELSEWHERE IN WISCONSIN...


CITY           SKY/WX    TMP DP  RH WIND       PRES   REMARKS
MILWAUKEE      CLOUDY    54  45  71 NE7       29.87R
MADISON        CLOUDY    58  40  51 N12G21    29.91R
GREEN BAY      CLOUDY    54  42  64 N10       29.90R
EAU CLAIRE     PTSUNNY   58  39  49 N13       29.96S
BLACK RVR FLS  CLOUDY    61  38  41 N15       29.94R
MEDFORD        CLOUDY    49  39  68 N7        29.95R
WAUSAU         CLOUDY    51  41  68 N14G21    29.92R
WIS RAPIDS     CLOUDY    56  39  53 NW15      29.94R
MARSHFIELD     CLOUDY    53  40  61 N13       29.94R
RICE LAKE      CLOUDY    54  39  58 N10       29.99S
$$

...NORTHEAST IOWA...


CITY           SKY/WX    TMP DP  RH WIND       PRES   REMARKS
DECORAH        SUNNY     64  43  45 NW10G17   29.93S
MASON CITY     SUNNY     66  42  41 NW16      30.00S
CHARLES CITY   SUNNY     66  41  39 NW14G22   29.97S
OELWEIN        SUNNY     64  43  45 N14G21    29.95S
$$

...ELSEWHERE IN IOWA...


CITY           SKY/WX    TMP DP  RH WIND       PRES   REMARKS
DES MOINES     SUNNY     71  40  32 NW15      30.00F
IOWA CITY      SUNNY     68  44  42 N18G24    29.96S
FORT DODGE     SUNNY     70  41  35 NW9G16    30.02F
$$

...NORTHERN ILLINOIS...


CITY           SKY/WX    TMP DP  RH WIND       PRES   REMARKS
CHICAGO-OHARE  PTSUNNY   64  45  49 NW18      29.84R
CHICAGO-MIDWAY PTSUNNY   65  48  54 NW14      29.85R
MOLINE         MOSUNNY   67  44  43 NW15G24   29.92S
ROCKFORD       MOSUNNY   63  41  44 NW15G24   29.90R
PEORIA         SUNNY     69  43  38 NW14G24   29.91S
$$

NOTE: "FAIR" INDICATES FEW OR NO CLOUDS BELOW 12,000 FEET WITH NO
SIGNIFICANT WEATHER AND/OR OBSTRUCTIONS TO VISIBILITY. WIND
SPEEDS ARE IN MILES-PER-HOUR.



USA.gov is the U.S. government's official web portal to all federal, state and local government web resources and services.